Preview of NWS' New Version of Forecast
This preview is not operational and should not be used for support decisions.

Regional Weather Roundup (RWR)

Issued by National Weather Service (NWS)

                            
000
ASCA42 TJSJ 241510
RWRPR 
PUERTO RICO/U.S. VIRGIN ISLANDS HOURLY WEATHER ROUNDUP
NATIONAL WEATHER SERVICE SAN JUAN PR
1100 AM AST FRI MAY 24 2019

PRZ001>002-007>008-010-241600-
PUERTO RICO
  
CITY           SKY/WX    TMP DP  RH WIND       PRES   REMARKS
SAN JUAN LMM   LGT RAIN  81  72  74 S8        29.98F                  
AGUADILLA      MOSUNNY   84  73  70 E14       29.98S HX  91           
CEIBA          LGT RAIN  81  70  69 S6        30.01S                  
$$

VIZ001>002-241600-
U.S. VIRGIN ISLANDS
  
CITY           SKY/WX    TMP DP  RH WIND       PRES   REMARKS
CHARLOTTE AMA  MOSUNNY   84  72  65 E15G24    29.98S                  
CHRISTIANSTED  MOSUNNY   86  72  62 E20G25    29.98F HX  92           
$$

HOURLY WEATHER ROUNDUP FOR THE NEWS MEDIA
  
CITY           SKY/WX    TMP DP  RH WIND       PRES   REMARKS
ORLANDO        FAIR      82  63  52 E7        30.16S                  
NEW YORK       FAIR      72  51  47 NW29G37   29.86S                  
NEWARK         FAIR      74  49  41 NW20G35   29.89R                  
CHICAGO        CLOUDY    59  52  77 SE12      30.10F                  
HARTFORD       PTSUNNY   69  51  52 NW16G29   29.68R                  
BOSTON         FAIR      71  49  45 NW25G38   29.69R                  
DALLAS         PTSUNNY   82  70  66 S12       30.05R                  
PHILADELPHIA   FAIR      74  47  38 NW20G32   29.95R                  
LOS ANGELES    MOSUNNY   61  51  70 CALM      29.99R                  
WASHINGTON DC  FAIR      75  53  46 N12G20    30.06S